Wetterdaten: Mittwoch, 04.08.2010
Datum Zeit Temp. a Sch. Temp. a Son. Temp. a Bod. Feuchte a. Luftdruck Regen Wind Richtung Richtung Sonnenschein Helligkeit Taupunkt Windchill
04.08.2010 00:04 12,7 C 14,3 C 16,5 C 80 % 1015 hPa 0,0 l/m 0,6 m/s (1 Bft) W-NW 295 0 min 0 lux 9,3 C 12,7 C
04.08.2010 00:10 12,5 C 14,1 C 16,2 C 79 % 1015 hPa 0,0 l/m 0,0 m/s (0 Bft) W-NW 295 0 min 0 lux 9,0 C 12,5 C
04.08.2010 00:14 12,4 C 13,9 C 16,2 C 79 % 1015 hPa 0,0 l/m 0,0 m/s (0 Bft) W-NW 290 0 min 0 lux 8,9 C 12,4 C
04.08.2010 00:19 12,2 C 13,8 C 16,1 C 79 % 1015 hPa 0,0 l/m 0,0 m/s (0 Bft) W-NW 290 0 min 0 lux 8,7 C 12,2 C
04.08.2010 00:24 12,2 C 13,7 C 15,9 C 80 % 1015 hPa 0,0 l/m 0,0 m/s (0 Bft) W-NW 290 0 min 0 lux 8,9 C 12,2 C
04.08.2010 00:29 12,0 C 13,5 C 15,8 C 80 % 1015 hPa 0,0 l/m 0,0 m/s (0 Bft) W-NW 290 0 min 0 lux 8,7 C 12,0 C
04.08.2010 00:34 11,9 C 13,4 C 15,6 C 80 % 1015 hPa 0,0 l/m 0,0 m/s (0 Bft) W-NW 290 0 min 0 lux 8,6 C 11,9 C
04.08.2010 00:39 11,8 C 13,3 C 15,7 C 81 % 1015 hPa 0,0 l/m 0,0 m/s (0 Bft) W-NW 290 0 min 0 lux 8,6 C 11,8 C
04.08.2010 00:45 11,8 C 13,2 C 15,7 C 82 % 1015 hPa 0,0 l/m 0,0 m/s (0 Bft) W-NW 290 0 min 0 lux 8,8 C 11,8 C
04.08.2010 00:50 11,7 C 13,1 C 15,6 C 82 % 1015 hPa 0,0 l/m 0,0 m/s (0 Bft) W-NW 290 0 min 0 lux 8,7 C 11,7 C
04.08.2010 00:54 11,6 C 13,0 C 15,4 C 82 % 1015 hPa 0,0 l/m 0,0 m/s (0 Bft) W-NW 290 0 min 0 lux 8,6 C 11,6 C
04.08.2010 00:59 11,5 C 13,0 C 15,3 C 82 % 1015 hPa 0,0 l/m 0,0 m/s (0 Bft) W-NW 290 0 min 0 lux 8,5 C 11,5 C
04.08.2010 01:04 11,5 C 12,8 C 15,3 C 82 % 1015 hPa 0,0 l/m 0,0 m/s (0 Bft) W-NW 290 0 min 0 lux 8,5 C 11,5 C
04.08.2010 01:09 11,4 C 12,7 C 15,3 C 82 % 1015 hPa 0,0 l/m 0,0 m/s (0 Bft) W-NW 290 0 min 0 lux 8,4 C 11,4 C
04.08.2010 01:14 11,3 C 12,7 C 15,1 C 83 % 1015 hPa 0,0 l/m 0,0 m/s (0 Bft) W-NW 290 0 min 0 lux 8,5 C 11,3 C
04.08.2010 01:19 11,2 C 12,6 C 15,0 C 83 % 1015 hPa 0,0 l/m 0,0 m/s (0 Bft) W-NW 290 0 min 0 lux 8,4 C 11,2 C
04.08.2010 01:25 11,1 C 12,4 C 15,0 C 83 % 1015 hPa 0,0 l/m 0,0 m/s (0 Bft) W-NW 290 0 min 0 lux 8,3 C 11,1 C
04.08.2010 01:30 11,0 C 12,4 C 14,9 C 83 % 1015 hPa 0,0 l/m 0,0 m/s (0 Bft) W-NW 290 0 min 0 lux 8,2 C 11,0 C
04.08.2010 01:34 10,9 C 12,3 C 14,8 C 83 % 1015 hPa 0,0 l/m 0,0 m/s (0 Bft) W-NW 290 0 min 0 lux 8,1 C 10,9 C
04.08.2010 01:39 10,8 C 12,2 C 14,7 C 84 % 1015 hPa 0,0 l/m 0,0 m/s (0 Bft) W-NW 290 0 min 0 lux 8,2 C 10,8 C
04.08.2010 01:44 10,8 C 12,1 C 14,7 C 84 % 1015 hPa 0,0 l/m 0,0 m/s (0 Bft) W-NW 290 0 min 0 lux 8,2 C 10,8 C
04.08.2010 01:50 10,7 C 12,0 C 14,6 C 84 % 1015 hPa 0,0 l/m 0,0 m/s (0 Bft) W-NW 290 0 min 0 lux 8,1 C 10,7 C
04.08.2010 01:55 10,7 C 12,0 C 14,5 C 84 % 1015 hPa 0,0 l/m 0,0 m/s (0 Bft) W-NW 290 0 min 0 lux 8,1 C 10,7 C
04.08.2010 01:59 10,6 C 11,9 C 14,5 C 84 % 1015 hPa 0,0 l/m 0,0 m/s (0 Bft) W-NW 290 0 min 0 lux 8,0 C 10,6 C
04.08.2010 02:04 10,6 C 11,8 C 14,4 C 85 % 1015 hPa 0,0 l/m 0,0 m/s (0 Bft) W-NW 290 0 min 0 lux 8,2 C 10,6 C
04.08.2010 02:09 10,5 C 11,8 C 14,4 C 85 % 1015 hPa 0,0 l/m 0,0 m/s (0 Bft) W-NW 290 0 min 0 lux 8,1 C 10,5 C
04.08.2010 02:14 10,4 C 11,7 C 14,2 C 86 % 1015 hPa 0,0 l/m 0,0 m/s (0 Bft) W-NW 290 0 min 0 lux 8,2 C 10,4 C
04.08.2010 02:19 10,4 C 11,7 C 14,2 C 85 % 1015 hPa 0,0 l/m 0,0 m/s (0 Bft) W-NW 290 0 min 0 lux 8,0 C 10,4 C
04.08.2010 02:24 10,4 C 11,7 C 14,0 C 85 % 1015 hPa 0,0 l/m 0,0 m/s (0 Bft) W-NW 290 0 min 0 lux 8,0 C 10,4 C
04.08.2010 02:29 10,4 C 11,6 C 14,1 C 86 % 1015 hPa 0,0 l/m 0,0 m/s (0 Bft) W-NW 290 0 min 0 lux 8,2 C 10,4 C
04.08.2010 02:34 10,4 C 11,6 C 14,0 C 86 % 1015 hPa 0,0 l/m 0,0 m/s (0 Bft) W-NW 295 0 min 0 lux 8,2 C 10,4 C
04.08.2010 02:39 10,3 C 11,6 C 14,0 C 86 % 1015 hPa 0,0 l/m 0,0 m/s (0 Bft) W-NW 295 0 min 0 lux 8,1 C 10,3 C
04.08.2010 02:44 10,3 C 11,6 C 14,0 C 87 % 1015 hPa 0,0 l/m 0,0 m/s (0 Bft) W-NW 295 0 min 0 lux 8,2 C 10,3 C
04.08.2010 02:49 10,4 C 11,6 C 14,0 C 87 % 1015 hPa 0,0 l/m 0,0 m/s (0 Bft) W-NW 290 0 min 0 lux 8,3 C 10,4 C
04.08.2010 02:54 10,4 C 11,6 C 13,9 C 87 % 1015 hPa 0,0 l/m 0,0 m/s (0 Bft) W-NW 295 0 min 0 lux 8,3 C 10,4 C
04.08.2010 02:59 10,4 C 11,5 C 13,9 C 87 % 1015 hPa 0,0 l/m 0,0 m/s (0 Bft) W-NW 295 0 min 0 lux 8,3 C 10,4 C
04.08.2010 03:04 10,4 C 11,5 C 13,9 C 87 % 1015 hPa 0,0 l/m 0,0 m/s (0 Bft) W-NW 295 0 min 0 lux 8,3 C 10,4 C
04.08.2010 03:09 10,4 C 11,4 C 13,6 C 86 % 1014 hPa 0,0 l/m 0,0 m/s (0 Bft) W-NW 295 0 min 0 lux 8,2 C 10,4 C
04.08.2010 03:14 10,4 C 11,4 C 13,6 C 86 % 1014 hPa 0,0 l/m 0,0 m/s (0 Bft) W-NW 290 0 min 0 lux 8,2 C 10,4 C
04.08.2010 03:19 10,4 C 11,4 C 13,8 C 87 % 1014 hPa 0,0 l/m 0,0 m/s (0 Bft) W-NW 295 0 min 0 lux 8,3 C 10,4 C
04.08.2010 03:24 10,5 C 11,4 C 13,8 C 87 % 1014 hPa 0,0 l/m 0,0 m/s (0 Bft) W-NW 290 0 min 0 lux 8,4 C 10,5 C
04.08.2010 03:29 10,6 C 11,5 C 13,7 C 87 % 1014 hPa 0,0 l/m 0,0 m/s (0 Bft) W-NW 290 0 min 0 lux 8,5 C 10,6 C
04.08.2010 03:34 10,6 C 11,5 C 13,7 C 87 % 1014 hPa 0,0 l/m 0,0 m/s (0 Bft) W-NW 290 0 min 0 lux 8,5 C 10,6 C
04.08.2010 03:39 10,6 C 11,5 C 13,7 C 87 % 1014 hPa 0,0 l/m 0,0 m/s (0 Bft) W-NW 290 0 min 0 lux 8,5 C 10,6 C
04.08.2010 03:44 10,7 C 11,6 C 13,6 C 87 % 1014 hPa 0,0 l/m 0,0 m/s (0 Bft) W-NW 290 0 min 0 lux 8,6 C 10,7 C
04.08.2010 03:49 10,7 C 11,6 C 13,6 C 87 % 1014 hPa 0,0 l/m 0,0 m/s (0 Bft) W-NW 290 0 min 0 lux 8,6 C 10,7 C
04.08.2010 03:54 10,7 C 11,7 C 13,6 C 87 % 1014 hPa 0,0 l/m 0,0 m/s (0 Bft) W-NW 290 0 min 0 lux 8,6 C 10,7 C
04.08.2010 03:59 10,8 C 11,7 C 13,6 C 87 % 1014 hPa 0,0 l/m 0,0 m/s (0 Bft) W-NW 290 0 min 0 lux 8,7 C 10,8 C
04.08.2010 04:04 10,8 C 11,8 C 13,7 C 88 % 1014 hPa 0,0 l/m 0,0 m/s (0 Bft) W-NW 295 0 min 0 lux 8,9 C 10,8 C
04.08.2010 04:09 10,8 C 11,8 C 13,7 C 88 % 1014 hPa 0,0 l/m 0,0 m/s (0 Bft) W-NW 290 0 min 0 lux 8,9 C 10,8 C
04.08.2010 04:14 10,9 C 11,8 C 13,6 C 88 % 1014 hPa 0,0 l/m 0,0 m/s (0 Bft) W-NW 290 0 min 0 lux 9,0 C 10,9 C
04.08.2010 04:19 10,9 C 11,8 C 13,5 C 88 % 1014 hPa 0,0 l/m 0,0 m/s (0 Bft) W-NW 290 0 min 0 lux 9,0 C 10,9 C
04.08.2010 04:24 10,8 C 11,8 C 13,6 C 88 % 1014 hPa 0,0 l/m 0,0 m/s (0 Bft) W-NW 290 0 min 0 lux 8,9 C 10,8 C
04.08.2010 04:29 10,8 C 11,9 C 13,6 C 88 % 1014 hPa 0,0 l/m 0,0 m/s (0 Bft) W-NW 290 0 min 0 lux 8,9 C 10,8 C
04.08.2010 04:34 10,8 C 11,9 C 13,6 C 87 % 1014 hPa 0,0 l/m 0,0 m/s (0 Bft) W-NW 290 0 min 0 lux 8,7 C 10,8 C
04.08.2010 04:39 10,8 C 11,9 C 13,6 C 87 % 1014 hPa 0,0 l/m 0,0 m/s (0 Bft) W-NW 290 0 min 0 lux 8,7 C 10,8 C
04.08.2010 04:44 10,8 C 12,0 C 13,6 C 87 % 1013 hPa 0,0 l/m 0,0 m/s (0 Bft) W-NW 290 0 min 0 lux 8,7 C 10,8 C
04.08.2010 04:49 10,9 C 11,9 C 13,6 C 88 % 1013 hPa 0,0 l/m 0,0 m/s (0 Bft) W-NW 290 0 min 0 lux 9,0 C 10,9 C
04.08.2010 04:54 10,9 C 12,0 C 13,6 C 88 % 1013 hPa 0,0 l/m 0,0 m/s (0 Bft) W-NW 290 0 min 0 lux 9,0 C 10,9 C
04.08.2010 04:59 10,9 C 12,1 C 13,6 C 88 % 1013 hPa 0,0 l/m 0,0 m/s (0 Bft) W-NW 290 0 min 0 lux 9,0 C 10,9 C
04.08.2010 05:04 10,9 C 12,0 C 13,5 C 88 % 1013 hPa 0,0 l/m 0,0 m/s (0 Bft) W-NW 290 0 min 0 lux 9,0 C 10,9 C
04.08.2010 05:09 10,8 C 12,1 C 13,5 C 89 % 1013 hPa 0,0 l/m 0,0 m/s (0 Bft) W-NW 290 0 min 0 lux 9,1 C 10,8 C
04.08.2010 05:14 10,8 C 12,1 C 13,5 C 89 % 1013 hPa 0,0 l/m 0,0 m/s (0 Bft) W-NW 290 0 min 0 lux 9,1 C 10,8 C
04.08.2010 05:19 10,9 C 12,1 C 13,5 C 89 % 1013 hPa 0,0 l/m 0,0 m/s (0 Bft) W-NW 290 0 min 0 lux 9,2 C 10,9 C
04.08.2010 05:24 11,0 C 12,1 C 13,5 C 88 % 1013 hPa 0,0 l/m 0,0 m/s (0 Bft) W-NW 285 0 min 0 lux 9,1 C 11,0 C
04.08.2010 05:29 11,1 C 12,1 C 13,5 C 88 % 1013 hPa 0,0 l/m 0,0 m/s (0 Bft) W-NW 285 0 min 0 lux 9,2 C 11,1 C
04.08.2010 05:34 11,2 C 12,1 C 13,4 C 88 % 1013 hPa 0,0 l/m 0,0 m/s (0 Bft) W-NW 285 0 min 0 lux 9,3 C 11,2 C
04.08.2010 05:39 11,2 C 12,2 C 13,5 C 88 % 1013 hPa 0,0 l/m 0,0 m/s (0 Bft) W-NW 285 0 min 0 lux 9,3 C 11,2 C
04.08.2010 05:44 11,3 C 12,2 C 13,5 C 88 % 1013 hPa 0,0 l/m 0,0 m/s (0 Bft) W-NW 285 0 min 52 lux 9,4 C 11,3 C
04.08.2010 05:49 11,3 C 12,2 C 13,5 C 88 % 1013 hPa 0,0 l/m 0,0 m/s (0 Bft) W-NW 285 0 min 108 lux 9,4 C 11,3 C
04.08.2010 05:54 11,2 C 12,2 C 13,5 C 88 % 1013 hPa 0,0 l/m 0,0 m/s (0 Bft) W-NW 285 0 min 134 lux 9,3 C 11,2 C
04.08.2010 05:59 11,3 C 12,3 C 13,5 C 89 % 1013 hPa 0,0 l/m 0,0 m/s (0 Bft) W-NW 285 0 min 188 lux 9,6 C 11,3 C
04.08.2010 06:04 11,3 C 12,3 C 13,5 C 89 % 1013 hPa 0,0 l/m 0,0 m/s (0 Bft) W-NW 285 0 min 285 lux 9,6 C 11,3 C
04.08.2010 06:09 11,3 C 12,3 C 13,5 C 89 % 1013 hPa 0,0 l/m 0,0 m/s (0 Bft) W-NW 285 0 min 363 lux 9,6 C 11,3 C
04.08.2010 06:14 11,4 C 12,3 C 13,5 C 89 % 1013 hPa 0,0 l/m 0,0 m/s (0 Bft) W-NW 285 0 min 504 lux 9,7 C 11,4 C
04.08.2010 06:19 11,4 C 12,4 C 13,6 C 89 % 1013 hPa 0,0 l/m 0,0 m/s (0 Bft) W-NW 285 0 min 770 lux 9,7 C 11,4 C
04.08.2010 06:24 11,4 C 12,4 C 13,6 C 89 % 1013 hPa 0,0 l/m 0,0 m/s (0 Bft) W-NW 285 0 min 574 lux 9,7 C 11,4 C
04.08.2010 06:29 11,5 C 12,5 C 13,6 C 89 % 1013 hPa 0,0 l/m 0,0 m/s (0 Bft) W-NW 285 0 min 624 lux 9,8 C 11,5 C
04.08.2010 06:34 11,6 C 12,5 C 13,5 C 89 % 1013 hPa 0,0 l/m 0,0 m/s (0 Bft) W-NW 285 0 min 720 lux 9,8 C 11,6 C
04.08.2010 06:39 11,6 C 12,5 C 13,5 C 89 % 1013 hPa 0,0 l/m 0,0 m/s (0 Bft) W-NW 285 0 min 1,58 klux 9,8 C 11,6 C
04.08.2010 06:44 11,7 C 12,6 C 13,6 C 89 % 1013 hPa 0,0 l/m 0,0 m/s (0 Bft) W-NW 285 0 min 1,28 klux 9,9 C 11,7 C
04.08.2010 06:49 11,7 C 12,6 C 13,5 C 89 % 1013 hPa 0,0 l/m 0,0 m/s (0 Bft) W-NW 285 0 min 1,13 klux 9,9 C 11,7 C
04.08.2010 06:55 11,7 C 12,7 C 13,6 C 89 % 1013 hPa 0,0 l/m 0,0 m/s (0 Bft) W-NW 285 0 min 1,10 klux 9,9 C 11,7 C
04.08.2010 07:00 11,8 C 12,7 C 13,6 C 89 % 1013 hPa 0,0 l/m 0,0 m/s (0 Bft) W-NW 285 0 min 1,10 klux 10,0 C 11,8 C
04.08.2010 07:05 11,8 C 12,7 C 13,7 C 89 % 1013 hPa 0,0 l/m 0,0 m/s (0 Bft) W-NW 285 0 min 1,19 klux 10,0 C 11,8 C
04.08.2010 07:10 11,8 C 12,8 C 13,7 C 89 % 1013 hPa 0,0 l/m 0,0 m/s (0 Bft) W-NW 285 0 min 1,18 klux 10,0 C 11,8 C
04.08.2010 07:15 11,9 C 12,8 C 13,7 C 89 % 1013 hPa 0,0 l/m 0,0 m/s (0 Bft) W-NW 285 0 min 930 lux 10,1 C 11,9 C
04.08.2010 07:20 11,9 C 12,8 C 13,7 C 89 % 1013 hPa 0,0 l/m 0,0 m/s (0 Bft) W-NW 285 0 min 1,20 klux 10,1 C 11,9 C
04.08.2010 07:25 12,0 C 12,8 C 13,7 C 89 % 1013 hPa 0,0 l/m 0,0 m/s (0 Bft) W-NW 285 0 min 1,75 klux 10,2 C 12,0 C
04.08.2010 07:30 12,0 C 12,9 C 13,7 C 89 % 1013 hPa 0,0 l/m 0,0 m/s (0 Bft) W-NW 285 0 min 1,97 klux 10,2 C 12,0 C
04.08.2010 07:35 12,0 C 12,9 C 13,8 C 89 % 1013 hPa 0,0 l/m 0,0 m/s (0 Bft) W-NW 285 0 min 2,27 klux 10,2 C 12,0 C
04.08.2010 07:40 12,2 C 13,0 C 13,8 C 89 % 1013 hPa 0,0 l/m 0,0 m/s (0 Bft) W-NW 285 0 min 2,90 klux 10,4 C 12,2 C
04.08.2010 07:45 12,4 C 13,0 C 13,8 C 89 % 1013 hPa 0,0 l/m 0,0 m/s (0 Bft) W-NW 285 0 min 3,58 klux 10,6 C 12,4 C
04.08.2010 07:50 12,4 C 13,1 C 13,8 C 89 % 1013 hPa 0,0 l/m 0,0 m/s (0 Bft) W-NW 285 0 min 6,71 klux 10,6 C 12,4 C
04.08.2010 07:55 12,4 C 13,2 C 13,9 C 89 % 1013 hPa 0,0 l/m 0,0 m/s (0 Bft) W-NW 285 0 min 11,2 klux 10,6 C 12,4 C
04.08.2010 08:00 12,4 C 13,3 C 13,9 C 89 % 1013 hPa 0,0 l/m 0,0 m/s (0 Bft) W-NW 285 0 min 14,4 klux 10,6 C 12,4 C
04.08.2010 08:05 13,3 C 13,5 C 14,0 C 87 % 1013 hPa 0,0 l/m 0,1 m/s (0 Bft) SW45 215 0 min 17,1 klux 11,2 C 13,3 C
04.08.2010 08:10 13,8 C 13,6 C 14,1 C 87 % 1013 hPa 0,0 l/m 0,0 m/s (0 Bft) S-SW 205 0 min 15,2 klux 11,7 C 13,8 C
04.08.2010 08:15 14,0 C 13,7 C 14,1 C 86 % 1013 hPa 0,0 l/m 0,0 m/s (0 Bft) S-SW 205 0 min 10,4 klux 11,7 C 14,0 C
04.08.2010 08:20 14,0 C 13,7 C 14,1 C 85 % 1013 hPa 0,0 l/m 0,0 m/s (0 Bft) S-SW 205 0 min 11,8 klux 11,5 C 14,0 C
04.08.2010 08:24 14,0 C 13,8 C 14,2 C 85 % 1013 hPa 0,0 l/m 0,0 m/s (0 Bft) S-SW 205 0 min 12,5 klux 11,5 C 14,0 C
04.08.2010 08:29 14,1 C 14,0 C 14,2 C 84 % 1013 hPa 0,0 l/m 0,0 m/s (0 Bft) S-SW 205 0 min 11,8 klux 11,4 C 14,1 C
04.08.2010 08:34 14,3 C 14,1 C 14,4 C 84 % 1013 hPa 0,0 l/m 0,0 m/s (0 Bft) S-SW 205 0 min 11,3 klux 11,6 C 14,3 C
04.08.2010 08:39 14,3 C 14,2 C 14,4 C 84 % 1013 hPa 0,0 l/m 0,0 m/s (0 Bft) S-SW 205 0 min 8,20 klux 11,6 C 14,3 C
04.08.2010 08:44 14,2 C 14,2 C 14,5 C 84 % 1013 hPa 0,0 l/m 0,0 m/s (0 Bft) S-SW 205 0 min 7,53 klux 11,5 C 14,2 C
04.08.2010 08:49 14,2 C 14,3 C 14,5 C 84 % 1013 hPa 0,0 l/m 0,0 m/s (0 Bft) S-SW 205 0 min 7,71 klux 11,5 C 14,2 C
04.08.2010 08:54 14,1 C 14,4 C 14,5 C 84 % 1013 hPa 0,0 l/m 0,0 m/s (0 Bft) S-SW 205 0 min 7,21 klux 11,4 C 14,1 C
04.08.2010 08:59 14,2 C 14,4 C 14,5 C 83 % 1012 hPa 0,0 l/m 0,1 m/s (0 Bft) S-SW45 210 0 min 6,09 klux 11,4 C 14,2 C
04.08.2010 09:04 14,1 C 14,4 C 14,5 C 83 % 1012 hPa 0,0 l/m 1,1 m/s (1 Bft) S45 170 0 min 6,40 klux 11,3 C 14,1 C
04.08.2010 09:09 14,0 C 14,6 C 14,5 C 82 % 1012 hPa 0,0 l/m 1,1 m/s (1 Bft) S-SO22.5 150 0 min 7,43 klux 11,0 C 14,0 C
04.08.2010 09:14 14,0 C 14,6 C 14,6 C 83 % 1012 hPa 0,0 l/m 0,0 m/s (0 Bft) S-SO22.5 150 0 min 9,1 klux 11,2 C 14,0 C
04.08.2010 09:19 14,2 C 14,6 C 14,6 C 83 % 1012 hPa 0,0 l/m 1,1 m/s (1 Bft) SO45 145 0 min 9,8 klux 11,4 C 14,2 C
04.08.2010 09:24 14,2 C 14,6 C 14,6 C 83 % 1012 hPa 0,0 l/m 1,3 m/s (1 Bft) SO22.5 140 0 min 11,5 klux 11,4 C 14,2 C
04.08.2010 09:29 14,2 C 14,9 C 14,7 C 83 % 1012 hPa 0,0 l/m 1,7 m/s (2 Bft) S-SO45 155 0 min 12,2 klux 11,4 C 14,2 C
04.08.2010 09:34 14,4 C 15,0 C 14,8 C 83 % 1012 hPa 0,0 l/m 0,1 m/s (0 Bft) S-SO22.5 150 0 min 12,4 klux 11,5 C 14,4 C
04.08.2010 09:39 14,4 C 15,1 C 14,8 C 83 % 1012 hPa 0,0 l/m 0,0 m/s (0 Bft) S-SO22.5 155 0 min 13,1 klux 11,5 C 14,4 C
04.08.2010 09:44 14,7 C 15,1 C 14,8 C 83 % 1012 hPa 0,0 l/m 1,3 m/s (1 Bft) SO22.5 140 0 min 12,5 klux 11,8 C 14,7 C
04.08.2010 09:49 14,8 C 15,3 C 14,9 C 81 % 1012 hPa 0,0 l/m 1,9 m/s (2 Bft) SO45 140 0 min 14,1 klux 11,6 C 14,6 C
04.08.2010 09:54 14,8 C 15,4 C 14,9 C 82 % 1012 hPa 0,0 l/m 2,1 m/s (2 Bft) O-SO45 120 0 min 12,9 klux 11,8 C 14,2 C
04.08.2010 09:59 14,7 C 15,5 C 15,0 C 82 % 1012 hPa 0,0 l/m 2,4 m/s (2 Bft) S-SO45 160 0 min 13,1 klux 11,7 C 13,5 C
04.08.2010 10:04 14,8 C 15,5 C 15,0 C 82 % 1012 hPa 0,0 l/m 1,7 m/s (2 Bft) SO45 130 0 min 12,0 klux 11,8 C 14,8 C
04.08.2010 10:09 14,8 C 15,6 C 15,0 C 81 % 1012 hPa 0,0 l/m 2,4 m/s (2 Bft) O-SO22.5 105 0 min 13,6 klux 11,6 C 13,6 C
04.08.2010 10:14 15,0 C 15,7 C 15,2 C 82 % 1012 hPa 0,0 l/m 0,8 m/s (1 Bft) O 100 0 min 13,1 klux 12,0 C 15,0 C
04.08.2010 10:19 15,1 C 15,8 C 15,3 C 80 % 1012 hPa 0,0 l/m 2,4 m/s (2 Bft) O-SO45 115 0 min 18,1 klux 11,7 C 13,8 C
04.08.2010 10:24 15,6 C 16,1 C 15,4 C 80 % 1012 hPa 0,0 l/m 2,3 m/s (2 Bft) O-SO22.5 120 0 min 28,0 klux 12,2 C 14,7 C
04.08.2010 10:29 15,7 C 16,5 C 15,6 C 79 % 1012 hPa 0,0 l/m 2,4 m/s (2 Bft) O-SO22.5 120 0 min 37,9 klux 12,1 C 14,5 C
04.08.2010 10:34 16,4 C 16,8 C 15,9 C 76 % 1012 hPa 0,0 l/m 2,4 m/s (2 Bft) S-SO67.5 155 5 min 56,1 klux 12,2 C 15,3 C
04.08.2010 10:39 17,3 C 17,6 C 16,2 C 74 % 1012 hPa 0,0 l/m 2,5 m/s (2 Bft) S-SO45 150 0 min 51,9 klux 12,6 C 16,0 C
04.08.2010 10:44 17,5 C 18,0 C 16,3 C 72 % 1012 hPa 0,0 l/m 2,3 m/s (2 Bft) S-SO67.5 150 0 min 49,8 klux 12,4 C 16,7 C
04.08.2010 10:49 17,6 C 18,3 C 16,5 C 70 % 1012 hPa 0,0 l/m 2,0 m/s (2 Bft) O-SO45 110 0 min 49,7 klux 12,1 C 17,3 C
04.08.2010 10:54 17,6 C 18,5 C 16,8 C 71 % 1012 hPa 0,0 l/m 0,2 m/s (0 Bft) O 100 0 min 48,5 klux 12,3 C 17,6 C
04.08.2010 10:59 18,0 C 19,2 C 17,0 C 72 % 1012 hPa 0,0 l/m 0,0 m/s (0 Bft) O-SO 120 0 min 44,9 klux 12,9 C 18,0 C
04.08.2010 11:04 18,5 C 19,4 C 17,3 C 70 % 1012 hPa 0,0 l/m 0,3 m/s (0 Bft) O45 100 0 min 47,4 klux 12,9 C 18,5 C
04.08.2010 11:09 18,8 C 19,6 C 17,3 C 69 % 1012 hPa 0,0 l/m 1,9 m/s (2 Bft) O-SO 115 0 min 46,7 klux 13,0 C 18,6 C
04.08.2010 11:15 19,0 C 19,7 C 17,6 C 67 % 1012 hPa 0,0 l/m 1,4 m/s (1 Bft) O-SO67.5 120 0 min 44,0 klux 12,7 C 19,0 C
04.08.2010 11:20 19,0 C 19,8 C 17,8 C 67 % 1011 hPa 0,0 l/m 0,7 m/s (1 Bft) S-SO45 150 0 min 43,6 klux 12,7 C 19,0 C
04.08.2010 11:24 19,3 C 19,8 C 17,9 C 67 % 1011 hPa 0,0 l/m 1,6 m/s (1 Bft) S45 170 0 min 50,1 klux 13,0 C 19,3 C
04.08.2010 11:29 19,4 C 20,4 C 18,3 C 64 % 1011 hPa 0,0 l/m 4,8 m/s (3 Bft) S-SW67.5 195 5 min 88,4 klux 12,4 C 16,0 C
04.08.2010 11:34 20,0 C 20,9 C 18,6 C 64 % 1011 hPa 0,0 l/m 3,8 m/s (3 Bft) S-SW67.5 200 5 min 61,7 klux 13,0 C 17,6 C
04.08.2010 11:39 20,3 C 21,1 C 18,6 C 63 % 1011 hPa 0,0 l/m 3,8 m/s (3 Bft) SW67.5 215 0 min 52,1 klux 13,0 C 18,0 C
04.08.2010 11:44 20,3 C 21,0 C 18,8 C 62 % 1011 hPa 0,0 l/m 4,7 m/s (3 Bft) W-SW67.5 250 0 min 52,9 klux 12,8 C 17,2 C
04.08.2010 11:49 20,4 C 21,2 C 19,2 C 63 % 1011 hPa 0,0 l/m 2,5 m/s (2 Bft) S67.5 170 0 min 54,4 klux 13,1 C 19,4 C
04.08.2010 11:54 20,8 C 21,5 C 19,5 C 63 % 1011 hPa 0,0 l/m 2,9 m/s (2 Bft) SW 225 5 min 61,6 klux 13,5 C 19,4 C
04.08.2010 12:00 20,4 C 21,5 C 19,5 C 61 % 1011 hPa 0,0 l/m 5,1 m/s (3 Bft) W67.5 265 0 min 44,6 klux 12,6 C 17,0 C
04.08.2010 12:05 20,3 C 21,5 C 19,7 C 61 % 1011 hPa 0,0 l/m 4,7 m/s (3 Bft) W-NW45 300 0 min 52,3 klux 12,5 C 17,2 C
04.08.2010 12:10 20,3 C 21,5 C 19,9 C 62 % 1011 hPa 0,0 l/m 3,3 m/s (2 Bft) W-SW67.5 245 0 min 52,7 klux 12,8 C 18,5 C
04.08.2010 12:14 20,8 C 21,8 C 20,4 C 62 % 1011 hPa 0,0 l/m 3,3 m/s (2 Bft) SW67.5 230 4 min 74,7 klux 13,2 C 19,0 C
04.08.2010 12:19 20,9 C 22,2 C 20,5 C 60 % 1011 hPa 0,0 l/m 1,9 m/s (2 Bft) SW67.5 225 0 min 53,9 klux 12,8 C 20,8 C
04.08.2010 12:24 21,0 C 22,2 C 20,5 C 61 % 1011 hPa 0,0 l/m 3,2 m/s (2 Bft) SW67.5 220 0 min 55,8 klux 13,2 C 19,3 C
04.08.2010 12:29 21,0 C 22,0 C 20,8 C 60 % 1011 hPa 0,0 l/m 4,0 m/s (3 Bft) SW67.5 215 5 min 101 klux 12,9 C 18,6 C
04.08.2010 12:34 21,3 C 22,6 C 21,2 C 60 % 1011 hPa 0,0 l/m 3,2 m/s (2 Bft) W-SW67.5 245 5 min 100 klux 13,2 C 19,7 C
04.08.2010 12:39 21,5 C 24,0 C 21,6 C 59 % 1011 hPa 0,0 l/m 4,7 m/s (3 Bft) W-SW45 250 5 min 88,5 klux 13,1 C 18,7 C
04.08.2010 12:44 21,8 C 24,0 C 21,9 C 59 % 1011 hPa 0,0 l/m 4,9 m/s (3 Bft) W-SW67.5 240 5 min 94,6 klux 13,4 C 19,0 C
04.08.2010 12:50 21,9 C 24,5 C 22,3 C 59 % 1010 hPa 0,0 l/m 5,4 m/s (3 Bft) S-SW67.5 210 6 min 94,7 klux 13,5 C 18,8 C
04.08.2010 12:55 22,3 C 25,0 C 22,7 C 59 % 1010 hPa 0,0 l/m 5,6 m/s (4 Bft) S-SW45 205 5 min 99 klux 13,9 C 19,1 C
04.08.2010 12:59 22,7 C 25,5 C 22,9 C 56 % 1010 hPa 0,0 l/m 4,9 m/s (3 Bft) SW67.5 225 4 min 101 klux 13,5 C 20,0 C
04.08.2010 13:04 23,1 C 25,5 C 23,2 C 56 % 1010 hPa 0,0 l/m 2,6 m/s (2 Bft) W-SW67.5 240 5 min 96,5 klux 13,8 C 22,2 C
04.08.2010 13:09 23,3 C 26,2 C 23,3 C 52 % 1010 hPa 0,0 l/m 5,8 m/s (4 Bft) S-SW67.5 210 5 min 88,5 klux 12,9 C 20,3 C
04.08.2010 13:14 23,5 C 26,5 C 23,7 C 54 % 1010 hPa 0,0 l/m 4,3 m/s (3 Bft) S-SW67.5 205 5 min 120 klux 13,6 C 21,4 C
04.08.2010 13:19 23,3 C 26,0 C 23,8 C 53 % 1010 hPa 0,0 l/m 3,1 m/s (2 Bft) W-SW 255 0 min 40,7 klux 13,2 C 22,0 C
04.08.2010 13:24 23,1 C 25,8 C 24,0 C 55 % 1010 hPa 0,0 l/m 2,0 m/s (2 Bft) SW67.5 235 0 min 64,8 klux 13,6 C 22,9 C
04.08.2010 13:29 23,3 C 25,7 C 24,0 C 53 % 1010 hPa 0,0 l/m 4,5 m/s (3 Bft) SW67.5 230 5 min 84,0 klux 13,2 C 21,0 C
04.08.2010 13:34 23,6 C 26,0 C 24,4 C 54 % 1010 hPa 0,0 l/m 5,9 m/s (4 Bft) SW67.5 225 5 min 100 klux 13,7 C 20,7 C
04.08.2010 13:39 23,8 C 26,0 C 24,4 C 52 % 1010 hPa 0,0 l/m 5,0 m/s (3 Bft) S-SW67.5 210 5 min 101 klux 13,3 C 21,4 C
04.08.2010 13:44 23,8 C 26,1 C 24,4 C 52 % 1010 hPa 0,0 l/m 3,5 m/s (3 Bft) SW67.5 230 5 min 66,4 klux 13,3 C 22,3 C
04.08.2010 13:49 23,0 C 25,5 C 24,3 C 50 % 1010 hPa 0,0 l/m 4,8 m/s (3 Bft) W67.5 270 0 min 41,0 klux 12,0 C 20,5 C
04.08.2010 13:54 22,6 C 25,2 C 24,2 C 52 % 1010 hPa 0,0 l/m 5,3 m/s (3 Bft) W-NW45 285 0 min 64,2 klux 12,2 C 19,7 C
04.08.2010 13:59 22,8 C 25,4 C 24,5 C 51 % 1009 hPa 0,0 l/m 3,1 m/s (2 Bft) SW67.5 230 0 min 61,9 klux 12,1 C 21,4 C
04.08.2010 14:04 23,1 C 25,6 C 24,6 C 51 % 1009 hPa 0,0 l/m 1,0 m/s (1 Bft) S-SO45 165 5 min 92,3 klux 12,4 C 23,1 C
04.08.2010 14:09 23,4 C 26,2 C 24,3 C 50 % 1009 hPa 0,0 l/m 3,9 m/s (3 Bft) S-SW67.5 205 0 min 40,6 klux 12,4 C 21,5 C
04.08.2010 14:14 22,9 C 25,8 C 24,2 C 49 % 1009 hPa 0,0 l/m 5,6 m/s (4 Bft) W-SW67.5 240 0 min 39,8 klux 11,6 C 20,0 C
04.08.2010 14:19 22,7 C 25,8 C 24,3 C 50 % 1009 hPa 0,0 l/m 7,5 m/s (4 Bft) W-NW67.5 290 0 min 38,6 klux 11,7 C 18,8 C
04.08.2010 14:24 22,4 C 24,7 C 24,2 C 50 % 1009 hPa 0,0 l/m 5,4 m/s (3 Bft) W67.5 275 0 min 38,8 klux 11,5 C 19,4 C
04.08.2010 14:29 22,6 C 24,6 C 23,9 C 50 % 1009 hPa 0,0 l/m 5,5 m/s (4 Bft) W45 275 0 min 33,8 klux 11,6 C 19,6 C
04.08.2010 14:34 22,5 C 24,3 C 23,9 C 51 % 1009 hPa 0,0 l/m 4,5 m/s (3 Bft) W67.5 265 0 min 35,6 klux 11,8 C 20,1 C
04.08.2010 14:39 22,6 C 24,4 C 24,2 C 51 % 1009 hPa 0,0 l/m 4,0 m/s (3 Bft) W67.5 265 0 min 29,7 klux 11,9 C 20,5 C
04.08.2010 14:44 23,2 C 25,0 C 24,0 C 51 % 1009 hPa 0,0 l/m 3,7 m/s (3 Bft) SW67.5 225 5 min 95,4 klux 12,5 C 21,4 C
04.08.2010 14:49 23,3 C 25,0 C 23,9 C 49 % 1009 hPa 0,0 l/m 8,6 m/s (5 Bft) W-NW45 300 0 min 39,2 klux 12,0 C 19,3 C
04.08.2010 14:54 22,8 C 25,0 C 23,9 C 50 % 1009 hPa 0,0 l/m 5,8 m/s (4 Bft) W-NW45 285 0 min 36,3 klux 11,8 C 19,7 C
04.08.2010 14:59 22,8 C 24,4 C 23,9 C 51 % 1009 hPa 0,0 l/m 6,6 m/s (4 Bft) W67.5 280 0 min 46,9 klux 12,1 C 19,3 C
04.08.2010 15:04 23,0 C 24,7 C 23,9 C 50 % 1009 hPa 0,0 l/m 5,0 m/s (3 Bft) W-SW67.5 255 5 min 68,3 klux 12,0 C 20,4 C
04.08.2010 15:09 22,7 C 24,6 C 23,8 C 50 % 1009 hPa 0,0 l/m 6,3 m/s (4 Bft) W-NW22.5 300 0 min 58,8 klux 11,7 C 19,3 C
04.08.2010 15:14 22,6 C 24,3 C 23,7 C 51 % 1009 hPa 0,0 l/m 5,0 m/s (3 Bft) W-NW67.5 290 0 min 27,4 klux 11,9 C 19,9 C
04.08.2010 15:19 22,1 C 24,1 C 23,6 C 52 % 1009 hPa 0,0 l/m 5,9 m/s (4 Bft) W45 280 0 min 23,1 klux 11,8 C 18,7 C
04.08.2010 15:24 22,0 C 23,8 C 23,7 C 52 % 1009 hPa 0,0 l/m 5,1 m/s (3 Bft) W-SW67.5 255 0 min 27,6 klux 11,7 C 19,1 C
04.08.2010 15:29 22,3 C 23,8 C 23,5 C 53 % 1009 hPa 0,0 l/m 4,6 m/s (3 Bft) SW67.5 215 0 min 49,9 klux 12,2 C 19,8 C
04.08.2010 15:35 22,8 C 24,5 C 24,0 C 49 % 1009 hPa 0,0 l/m 5,5 m/s (3 Bft) W-NW45 285 0 min 47,3 klux 11,5 C 19,9 C
04.08.2010 15:40 22,9 C 24,5 C 23,8 C 49 % 1009 hPa 0,0 l/m 5,4 m/s (3 Bft) W-NW45 295 0 min 44,7 klux 11,6 C 20,0 C
04.08.2010 15:45 22,7 C 24,5 C 23,9 C 50 % 1009 hPa 0,0 l/m 5,7 m/s (4 Bft) W-NW45 290 0 min 37,0 klux 11,7 C 19,6 C
04.08.2010 15:50 22,5 C 24,1 C 23,8 C 52 % 1009 hPa 0,0 l/m 3,5 m/s (3 Bft) W-SW67.5 240 0 min 19,0 klux 12,1 C 20,8 C
04.08.2010 15:55 22,3 C 24,1 C 23,5 C 51 % 1009 hPa 0,0 l/m 5,0 m/s (3 Bft) W-NW45 285 0 min 15,9 klux 11,7 C 19,5 C
04.08.2010 16:00 22,0 C 24,1 C 23,4 C 52 % 1009 hPa 0,0 l/m 5,3 m/s (3 Bft) W-NW45 285 0 min 10,6 klux 11,7 C 18,9 C
04.08.2010 16:05 21,5 C 24,1 C 23,2 C 54 % 1009 hPa 0,0 l/m 3,6 m/s (3 Bft) SW67.5 230 0 min 6,66 klux 11,8 C 19,6 C
04.08.2010 16:10 21,1 C 24,1 C 23,1 C 56 % 1009 hPa 0,0 l/m 5,0 m/s (3 Bft) W67.5 270 0 min 4,40 klux 12,0 C 18,0 C
04.08.2010 16:15 21,0 C 24,1 C 23,2 C 56 % 1009 hPa 0,0 l/m 1,4 m/s (1 Bft) S-SW67.5 195 0 min 3,53 klux 11,9 C 21,0 C
04.08.2010 16:20 20,8 C 24,1 C 22,9 C 57 % 1009 hPa 0,0 l/m 2,9 m/s (2 Bft) W45 260 0 min 8,72 klux 12,0 C 19,4 C
04.08.2010 16:25 20,9 C 24,1 C 22,9 C 57 % 1009 hPa 0,0 l/m 2,9 m/s (2 Bft) W-SW45 255 0 min 12,0 klux 12,1 C 19,5 C
04.08.2010 16:30 21,0 C 24,1 C 22,8 C 58 % 1009 hPa 0,0 l/m 3,7 m/s (3 Bft) W-SW67.5 240 0 min 19,7 klux 12,4 C 18,9 C
04.08.2010 16:35 21,2 C 22,3 C 22,9 C 55 % 1009 hPa 0,0 l/m 3,8 m/s (3 Bft) W67.5 275 0 min 27,6 klux 11,8 C 19,0 C
04.08.2010 16:40 21,8 C 22,6 C 22,9 C 52 % 1008 hPa 0,0 l/m 4,3 m/s (3 Bft) W-NW67.5 295 0 min 26,9 klux 11,5 C 19,3 C
04.08.2010 16:45 21,8 C 22,6 C 22,8 C 52 % 1008 hPa 0,0 l/m 3,9 m/s (3 Bft) W-SW67.5 250 0 min 20,3 klux 11,5 C 19,6 C
04.08.2010 16:50 21,8 C 22,6 C 22,7 C 52 % 1008 hPa 0,0 l/m 4,6 m/s (3 Bft) W45 280 0 min 22,4 klux 11,5 C 19,2 C
04.08.2010 16:55 21,7 C 22,5 C 22,4 C 51 % 1008 hPa 0,0 l/m 5,9 m/s (4 Bft) W-NW67.5 295 0 min 17,0 klux 11,1 C 18,2 C
04.08.2010 17:00 21,6 C 22,3 C 22,5 C 52 % 1008 hPa 0,0 l/m 6,1 m/s (4 Bft) W-NW67.5 295 0 min 11,8 klux 11,3 C 18,0 C
04.08.2010 17:05 21,1 C 22,1 C 22,4 C 53 % 1008 hPa 0,0 l/m 5,6 m/s (4 Bft) W-NW45 295 0 min 10,5 klux 11,1 C 17,6 C
04.08.2010 17:10 20,8 C 22,0 C 22,3 C 54 % 1008 hPa 0,0 l/m 8,3 m/s (5 Bft) W-NW45 290 0 min 9,5 klux 11,1 C 15,8 C
04.08.2010 17:14 20,7 C 21,8 C 22,2 C 54 % 1008 hPa 0,0 l/m 3,9 m/s (3 Bft) W-NW45 290 0 min 10,4 klux 11,1 C 18,3 C
04.08.2010 17:19 20,7 C 21,8 C 22,1 C 54 % 1008 hPa 0,0 l/m 7,4 m/s (4 Bft) W-NW45 295 0 min 8,07 klux 11,1 C 16,1 C
04.08.2010 17:24 20,3 C 21,5 C 21,9 C 56 % 1008 hPa 0,0 l/m 7,4 m/s (4 Bft) W-NW45 295 0 min 6,72 klux 11,2 C 15,6 C
04.08.2010 17:29 20,1 C 21,4 C 22,0 C 57 % 1008 hPa 0,0 l/m 6,9 m/s (4 Bft) W-NW22.5 295 0 min 9,6 klux 11,3 C 15,5 C
04.08.2010 17:34 20,1 C 21,4 C 22,0 C 57 % 1008 hPa 0,0 l/m 4,6 m/s (3 Bft) W-NW22.5 300 0 min 10,5 klux 11,3 C 17,0 C
04.08.2010 17:39 20,0 C 21,2 C 21,9 C 58 % 1008 hPa 0,0 l/m 5,3 m/s (3 Bft) W-NW45 300 0 min 10,5 klux 11,5 C 16,4 C
04.08.2010 17:44 19,8 C 21,1 C 21,6 C 61 % 1008 hPa 0,0 l/m 4,3 m/s (3 Bft) W-NW45 295 0 min 10,0 klux 12,1 C 16,9 C
04.08.2010 17:49 19,6 C 20,9 C 21,7 C 63 % 1008 hPa 0,0 l/m 4,2 m/s (3 Bft) W67.5 280 0 min 11,9 klux 12,4 C 16,7 C
04.08.2010 17:54 19,6 C 20,9 C 21,6 C 63 % 1008 hPa 0,0 l/m 3,2 m/s (2 Bft) W45 280 0 min 16,4 klux 12,4 C 17,7 C
04.08.2010 17:59 19,6 C 20,8 C 21,5 C 63 % 1008 hPa 0,0 l/m 2,4 m/s (2 Bft) W45 260 0 min 15,5 klux 12,4 C 18,7 C
04.08.2010 18:04 19,8 C 20,7 C 21,3 C 62 % 1008 hPa 0,0 l/m 5,2 m/s (3 Bft) W67.5 275 0 min 13,2 klux 12,3 C 16,2 C
04.08.2010 18:09 19,8 C 20,7 C 21,4 C 61 % 1008 hPa 0,0 l/m 3,6 m/s (3 Bft) W-SW45 255 0 min 12,5 klux 12,1 C 17,6 C
04.08.2010 18:14 19,7 C 20,7 C 21,3 C 61 % 1008 hPa 0,0 l/m 3,1 m/s (2 Bft) W45 270 0 min 12,0 klux 12,0 C 18,0 C
04.08.2010 18:19 19,7 C 20,6 C 21,3 C 61 % 1008 hPa 0,0 l/m 2,6 m/s (2 Bft) W-SW45 255 0 min 9,5 klux 12,0 C 18,5 C
04.08.2010 18:24 19,8 C 20,6 C 21,3 C 61 % 1008 hPa 0,0 l/m 2,6 m/s (2 Bft) W-SW45 250 0 min 10,3 klux 12,1 C 18,7 C
04.08.2010 18:29 19,7 C 20,6 C 21,1 C 61 % 1008 hPa 0,0 l/m 3,2 m/s (2 Bft) W45 270 0 min 10,6 klux 12,0 C 17,8 C
04.08.2010 18:34 19,8 C 20,6 C 21,1 C 60 % 1008 hPa 0,0 l/m 4,8 m/s (3 Bft) W-NW67.5 285 0 min 11,2 klux 11,8 C 16,5 C
04.08.2010 18:39 19,8 C 20,6 C 21,1 C 60 % 1008 hPa 0,0 l/m 5,0 m/s (3 Bft) NW45 305 0 min 7,99 klux 11,8 C 16,4 C
04.08.2010 18:44 19,8 C 20,5 C 21,0 C 60 % 1008 hPa 0,0 l/m 3,8 m/s (3 Bft) W45 270 0 min 6,77 klux 11,8 C 17,4 C
04.08.2010 18:49 19,6 C 20,4 C 20,9 C 61 % 1008 hPa 0,0 l/m 3,5 m/s (3 Bft) W-SW67.5 255 0 min 5,47 klux 11,9 C 17,4 C
04.08.2010 18:54 19,6 C 20,4 C 20,9 C 61 % 1008 hPa 0,0 l/m 3,8 m/s (3 Bft) W-SW45 255 0 min 5,67 klux 11,9 C 17,1 C
04.08.2010 18:59 19,5 C 20,4 C 20,8 C 61 % 1008 hPa 0,0 l/m 3,8 m/s (3 Bft) W-SW45 255 0 min 6,11 klux 11,8 C 17,0 C
04.08.2010 19:04 19,4 C 20,3 C 20,8 C 61 % 1008 hPa 0,0 l/m 3,6 m/s (3 Bft) W45 265 0 min 5,97 klux 11,7 C 17,0 C
04.08.2010 19:09 19,4 C 20,2 C 20,7 C 62 % 1008 hPa 0,0 l/m 2,9 m/s (2 Bft) W-NW45 290 0 min 6,40 klux 11,9 C 17,8 C
04.08.2010 19:14 19,3 C 20,2 C 20,5 C 62 % 1008 hPa 0,0 l/m 5,8 m/s (4 Bft) NW22.5 315 0 min 5,71 klux 11,8 C 15,1 C
04.08.2010 19:19 18,5 C 20,2 C 20,3 C 69 % 1008 hPa 0,0 l/m 6,7 m/s (4 Bft) NW22.5 320 0 min 5,36 klux 12,7 C 13,5 C
04.08.2010 19:24 17,6 C 19,6 C 20,0 C 74 % 1008 hPa 0,0 l/m 4,3 m/s (3 Bft) NW45 315 0 min 5,26 klux 12,9 C 14,2 C
04.08.2010 19:29 17,4 C 19,5 C 20,0 C 77 % 1008 hPa 0,0 l/m 5,0 m/s (3 Bft) NW45 315 0 min 7,32 klux 13,3 C 13,3 C
04.08.2010 19:34 17,2 C 19,3 C 19,9 C 78 % 1008 hPa 0,0 l/m 1,2 m/s (1 Bft) W-SW22.5 255 0 min 8,73 klux 13,3 C 17,2 C
04.08.2010 19:39 17,2 C 19,1 C 20,0 C 79 % 1008 hPa 0,0 l/m 1,1 m/s (1 Bft) W-SW 245 0 min 9,00 klux 13,5 C 17,2 C
04.08.2010 19:44 17,2 C 19,0 C 19,9 C 77 % 1008 hPa 0,0 l/m 0,1 m/s (0 Bft) W-SW 245 0 min 7,79 klux 13,1 C 17,2 C
04.08.2010 19:49 17,2 C 19,0 C 19,7 C 77 % 1008 hPa 0,0 l/m 0,0 m/s (0 Bft) W-SW 245 0 min 7,82 klux 13,1 C 17,2 C
04.08.2010 19:54 17,3 C 18,9 C 19,6 C 76 % 1008 hPa 0,0 l/m 0,0 m/s (0 Bft) W-SW 240 0 min 8,14 klux 13,0 C 17,3 C
04.08.2010 19:59 17,4 C 18,8 C 19,4 C 77 % 1008 hPa 0,0 l/m 0,0 m/s (0 Bft) W-SW 240 0 min 8,18 klux 13,3 C 17,4 C
04.08.2010 20:04 17,5 C 18,6 C 19,3 C 77 % 1008 hPa 0,0 l/m 0,2 m/s (0 Bft) W-SW 245 0 min 6,93 klux 13,4 C 17,5 C
04.08.2010 20:09 17,4 C 18,6 C 19,3 C 77 % 1007 hPa 0,0 l/m 0,0 m/s (0 Bft) W-SW 245 0 min 7,31 klux 13,3 C 17,4 C
04.08.2010 20:14 17,4 C 18,5 C 19,2 C 79 % 1007 hPa 0,0 l/m 0,0 m/s (0 Bft) W-SW 245 0 min 4,76 klux 13,7 C 17,4 C
04.08.2010 20:19 17,2 C 18,4 C 19,2 C 78 % 1007 hPa 0,0 l/m 0,0 m/s (0 Bft) W-SW 245 0 min 3,81 klux 13,3 C 17,2 C
04.08.2010 20:24 17,0 C 18,4 C 19,1 C 79 % 1007 hPa 0,0 l/m 0,0 m/s (0 Bft) W-SW 245 0 min 2,87 klux 13,3 C 17,0 C
04.08.2010 20:29 16,9 C 18,3 C 19,1 C 79 % 1008 hPa 0,0 l/m 0,0 m/s (0 Bft) W-SW45 255 0 min 2,30 klux 13,2 C 16,9 C
04.08.2010 20:34 16,8 C 18,2 C 19,0 C 80 % 1008 hPa 0,0 l/m 0,0 m/s (0 Bft) W-SW 245 0 min 1,54 klux 13,3 C 16,8 C
04.08.2010 20:39 16,7 C 18,1 C 19,0 C 81 % 1008 hPa 0,0 l/m 0,0 m/s (0 Bft) W-SW 245 0 min 1,28 klux 13,4 C 16,7 C
04.08.2010 20:44 16,6 C 18,0 C 19,0 C 81 % 1008 hPa 0,0 l/m 0,0 m/s (0 Bft) W-SW 245 0 min 810 lux 13,3 C 16,6 C
04.08.2010 20:49 16,5 C 17,9 C 18,9 C 81 % 1007 hPa 0,0 l/m 0,0 m/s (0 Bft) W-SW 245 0 min 719 lux 13,2 C 16,5 C
04.08.2010 20:54 16,4 C 17,8 C 18,8 C 83 % 1007 hPa 0,0 l/m 0,0 m/s (0 Bft) W-SW 245 0 min 536 lux 13,5 C 16,4 C
04.08.2010 20:59 16,2 C 17,7 C 18,5 C 83 % 1007 hPa 0,0 l/m 0,0 m/s (0 Bft) W-SW 250 0 min 393 lux 13,3 C 16,2 C
04.08.2010 21:04 16,1 C 17,6 C 18,5 C 83 % 1007 hPa 0,0 l/m 1,1 m/s (1 Bft) W-SW22.5 250 0 min 293 lux 13,2 C 16,1 C
04.08.2010 21:09 16,0 C 17,5 C 18,4 C 83 % 1007 hPa 0,0 l/m 0,0 m/s (0 Bft) W-SW 250 0 min 216 lux 13,1 C 16,0 C
04.08.2010 21:14 16,0 C 17,4 C 18,3 C 84 % 1007 hPa 0,0 l/m 0,0 m/s (0 Bft) W-SW 250 0 min 163 lux 13,3 C 16,0 C
04.08.2010 21:19 15,9 C 17,2 C 18,3 C 83 % 1007 hPa 0,0 l/m 0,0 m/s (0 Bft) W-SW 245 0 min 115 lux 13,0 C 15,9 C
04.08.2010 21:24 15,8 C 17,1 C 18,2 C 84 % 1008 hPa 0,0 l/m 0,0 m/s (0 Bft) W-SW 245 0 min 72 lux 13,1 C 15,8 C
04.08.2010 21:29 15,6 C 17,0 C 18,1 C 84 % 1008 hPa 0,0 l/m 0,0 m/s (0 Bft) W-SW 245 0 min 36 lux 12,9 C 15,6 C
04.08.2010 21:34 15,5 C 16,9 C 18,0 C 83 % 1008 hPa 0,0 l/m 0,0 m/s (0 Bft) W-SW 245 0 min 25 lux 12,6 C 15,5 C
04.08.2010 21:39 15,4 C 16,7 C 18,0 C 84 % 1008 hPa 0,0 l/m 0,0 m/s (0 Bft) W-SW 245 0 min 11 lux 12,7 C 15,4 C
04.08.2010 21:44 15,2 C 16,6 C 17,8 C 84 % 1008 hPa 0,0 l/m 0,0 m/s (0 Bft) W-SW 245 0 min 4 lux 12,5 C 15,2 C
04.08.2010 21:49 15,1 C 16,6 C 17,8 C 84 % 1008 hPa 0,0 l/m 0,0 m/s (0 Bft) W-SW 245 0 min 1 lux 12,4 C 15,1 C
04.08.2010 21:54 15,1 C 16,6 C 17,7 C 84 % 1008 hPa 0,0 l/m 0,0 m/s (0 Bft) W-SW 245 0 min 0 lux 12,4 C 15,1 C
04.08.2010 22:00 15,1 C 16,4 C 17,7 C 84 % 1008 hPa 0,0 l/m 0,0 m/s (0 Bft) W-SW 245 0 min 0 lux 12,4 C 15,1 C
04.08.2010 22:05 15,2 C 16,4 C 17,6 C 85 % 1008 hPa 0,0 l/m 0,0 m/s (0 Bft) W-SW 245 0 min 0 lux 12,7 C 15,2 C
04.08.2010 22:10 15,2 C 16,5 C 17,5 C 87 % 1008 hPa 0,0 l/m 0,0 m/s (0 Bft) W-SW 250 0 min 0 lux 13,0 C 15,2 C
04.08.2010 22:15 15,1 C 16,4 C 17,4 C 87 % 1008 hPa 0,0 l/m 1,3 m/s (1 Bft) W-SW 250 0 min 0 lux 13,0 C 15,1 C
04.08.2010 22:20 15,0 C 16,3 C 17,5 C 87 % 1008 hPa 0,0 l/m 0,0 m/s (0 Bft) W-SW 250 0 min 0 lux 12,9 C 15,0 C
04.08.2010 22:25 15,1 C 16,3 C 17,4 C 86 % 1008 hPa 0,0 l/m 0,0 m/s (0 Bft) W-SW 245 0 min 0 lux 12,8 C 15,1 C
04.08.2010 22:30 15,0 C 16,3 C 17,4 C 86 % 1008 hPa 0,0 l/m 0,0 m/s (0 Bft) W-SW 250 0 min 0 lux 12,7 C 15,0 C
04.08.2010 22:35 15,0 C 16,2 C 17,3 C 86 % 1008 hPa 0,0 l/m 0,0 m/s (0 Bft) W-SW 250 0 min 0 lux 12,7 C 15,0 C
04.08.2010 22:40 15,0 C 16,1 C 17,2 C 86 % 1008 hPa 0,0 l/m 0,0 m/s (0 Bft) W-SW 250 0 min 0 lux 12,7 C 15,0 C
04.08.2010 22:45 15,0 C 16,1 C 17,2 C 86 % 1007 hPa 0,0 l/m 0,0 m/s (0 Bft) W-SW 250 0 min 0 lux 12,7 C 15,0 C
04.08.2010 22:50 15,0 C 16,1 C 17,2 C 87 % 1007 hPa 0,0 l/m 0,0 m/s (0 Bft) W-SW 250 0 min 0 lux 12,9 C 15,0 C
04.08.2010 22:55 15,0 C 16,0 C 17,1 C 87 % 1007 hPa 0,0 l/m 0,0 m/s (0 Bft) W-SW 250 0 min 0 lux 12,9 C 15,0 C
04.08.2010 23:00 14,9 C 16,0 C 17,0 C 88 % 1007 hPa 0,0 l/m 0,0 m/s (0 Bft) W-SW 250 0 min 0 lux 12,9 C 14,9 C
04.08.2010 23:05 14,8 C 16,0 C 17,1 C 88 % 1007 hPa 0,0 l/m 0,0 m/s (0 Bft) W-SW 250 0 min 0 lux 12,8 C 14,8 C
04.08.2010 23:10 14,8 C 15,9 C 16,9 C 88 % 1007 hPa 0,0 l/m 0,0 m/s (0 Bft) W-SW 250 0 min 0 lux 12,8 C 14,8 C
04.08.2010 23:15 14,8 C 15,9 C 16,9 C 89 % 1007 hPa 0,0 l/m 1,0 m/s (1 Bft) W-SW 245 0 min 0 lux 13,0 C 14,8 C
04.08.2010 23:20 14,8 C 15,9 C 16,9 C 89 % 1007 hPa 0,0 l/m 0,0 m/s (0 Bft) W-SW 245 0 min 0 lux 13,0 C 14,8 C
04.08.2010 23:25 14,8 C 15,9 C 16,9 C 88 % 1007 hPa 0,0 l/m 0,0 m/s (0 Bft) W-SW 245 0 min 0 lux 12,8 C 14,8 C
04.08.2010 23:30 14,8 C 15,9 C 16,8 C 90 % 1007 hPa 0,0 l/m 4,1 m/s (3 Bft) W-NW45 295 0 min 0 lux 13,2 C 11,1 C
04.08.2010 23:35 14,8 C 15,8 C 16,8 C 89 % 1007 hPa 0,0 l/m 1,6 m/s (1 Bft) W45 270 0 min 0 lux 13,0 C 14,8 C
04.08.2010 23:40 15,0 C 15,8 C 16,8 C 89 % 1007 hPa 0,0 l/m 1,3 m/s (1 Bft) W-NW22.5 285 0 min 0 lux 13,2 C 15,0 C
04.08.2010 23:45 15,0 C 15,9 C 16,8 C 88 % 1007 hPa 0,0 l/m 0,1 m/s (0 Bft) W-NW22.5 290 0 min 0 lux 13,0 C 15,0 C
04.08.2010 23:49 15,0 C 15,9 C 16,8 C 88 % 1007 hPa 0,0 l/m 0,9 m/s (1 Bft) W-NW 290 0 min 0 lux 13,0 C 15,0 C
04.08.2010 23:54 15,0 C 15,9 C 16,8 C 88 % 1007 hPa 0,0 l/m 0,0 m/s (0 Bft) W-NW 290 0 min 0 lux 13,0 C 15,0 C
04.08.2010 23:59 15,0 C 16,0 C 16,8 C 88 % 1007 hPa 0,0 l/m 0,0 m/s (0 Bft) W-NW 285 0 min 0 lux 13,0 C 15,0 C
_ Min-Zeit 02:39 03:09 05:34 14:14 20:09 - 00:10 - - - - 02:19 02:39
Minimum _ 10,3 C 11,4 C 13,4 C 49 % 1007 hPa - 0,0 m/s (0 Bft) - - - - 8,0 C 10,3 C
_ Max-Zeit 13:39 13:14 14:04 23:30 00:04 00:04 14:49 - - 12:50 13:14 12:55 14:04
Maximum _ 23,8 C 26,5 C 24,6 C 90 % 1015 hPa 0,0 l/m 8,6 m/s
W-NW (5 Bft)
- - 6 min 120 klux 13,9 C 23,1 C
Durchschnitt _ 16,1 C 17,3 C 17,8 C 75 % 1011 hPa #0,0 l/m 1,7 m/s (2 Bft) W-NW - #1:49 h 16,8 klux 11,2 C 15,1 C